Vertical_Velocity
-2 -2 -0 -2 -3 -3 1 0 0 2 -2 -2 -1 -1 -2 -3 -1 -2 -0 -0 -0 -1 -1 -0 0 0 1 0 2 -3 1 -2 -5 -4 0 1 1 3 2 2 1 3 2 1 0 1 4 1 2 5 5 -2 2 -1
-2 -4 -3 -1 1 -0 -3 -3 -5 0 -2 0 -2 2 0 -2 -0 -3 -2 0 -1 -1 -1 0 -1 0 -2 -2 -1 -1 0 -1 2 1 -1 0 0 -0 1 2 2 5 1 1 5 7 1 1 0 -2 -1 1 -3 2
-3 -5 -4 -2 1 0 0 -1 -1 -0 -1 -3 -2 -1 1 -0 -3 -1 -2 -2 0 1 0 1 -1 -1 -2 -2 -2 1 -0 -1 1 -2 2 1 2 2 2 2 1 3 -1 1 2 4 -1 -0 0 -2 1 -0 -4 -3
1 -0 -3 -2 0 -0 1 2 2 -2 -2 -3 -4 -4 2 -0 -2 1 -0 -2 -2 -1 2 1 0 0 -1 0 -0 0 1 -0 0 -1 1 0 2 -1 1 4 3 5 2 -1 -3 -0 1 2 2 3 -1 -1 -1 0
3 -1 -2 -5 -8 -3 -0 -1 6 -2 2 -3 -2 -2 -1 0 -0 -0 1 0 -1 -3 1 2 -1 -0 2 -0 0 1 0 1 0 2 1 1 -0 2 0 2 0 -5 -4 -1 3 0 0 -0 2 -3 -3 -3 -2 -4
9 -1 -4 -1 -1 -5 1 -4 2 0 -0 1 0 -2 -2 3 2 -5 1 3 -0 -3 1 1 -1 -1 1 -0 0 -0 1 -0 0 2 -1 -1 -1 2 1 -0 -1 -2 -3 -3 -1 -3 -4 -5 -6 -4 -3 -3 1 0
5 9 -4 0 -5 -3 -3 -3 -1 0 1 -2 -2 -2 0 4 2 -1 -0 -1 -0 1 -0 -1 1 -0 0 1 1 1 0 3 2 -1 1 0 1 2 1 0 -1 -3 -1 -2 -1 -2 -3 1 1 2 2 1 0 1
-4 7 -3 2 -5 -1 0 1 2 -3 2 1 -4 -5 -3 5 -0 1 -1 3 2 -3 2 1 0 1 -1 -0 1 -1 2 -0 -1 2 -0 1 1 1 1 -7 -2 -0 1 -1 -1 -2 -2 -2 -3 -2 -2 -4 -2 -2
3 -4 5 -2 -4 -2 3 4 7 5 4 2 -2 -4 2 2 2 -0 -1 2 2 3 1 1 1 2 0 -1 -2 -0 -1 2 -2 1 1 2 0 -3 -10 -2 -4 -5 -7 -2 -4 -3 -2 -3 -1 -2 -0 3 -1 -3
3 -8 -2 -3 -1 -5 -3 1 4 6 1 -2 -3 -3 -1 -2 1 -1 3 1 0 0 2 0 -2 2 -1 -1 1 2 -2 0 1 3 -2 3 -5 -10 -3 -2 1 -3 -1 -3 -2 -2 -1 -4 -2 -0 -1 0 -0 -3
4 -5 1 -1 4 0 3 1 4 3 3 -7 0 -1 3 3 2 -0 1 1 1 1 1 0 -0 -0 -1 2 1 -2 0 0 2 4 4 -1 -3 -2 -2 -1 -1 -2 -2 0 -1 -2 0 0 0 1 1 1 -0 2
-3 2 -19 -0 0 3 -2 2 5 2 1 2 -0 -7 6 0 0 2 -1 1 2 -1 0 1 1 -0 -1 -2 0 0 0 1 -0 -0 4 -1 -7 -2 -2 -1 -2 -1 0 -2 -1 -1 -2 -3 -2 -3 -1 -1 0 -2
-5 -9 -7 1 -1 -2 4 1 8 -8 7 -4 -1 1 3 -1 2 4 -1 2 1 -1 -3 -2 1 0 -1 -1 -1 1 2 -1 -1 3 -4 -6 0 -0 -1 -2 -1 -1 -1 0 -2 -2 -2 -3 -1 -2 -4 1 -1 -0
-1 -4 1 -2 1 1 -3 -0 3 -6 7 2 3 1 -1 1 -2 -3 -1 1 3 2 2 0 -0 -1 -0 1 -0 3 1 3 2 2 -8 -3 -6 -2 -1 0 -1 -2 -3 -1 -0 -2 -1 -2 -3 0 -0 -0 1 1
-2 1 6 -8 1 -6 -5 3 13 1 -1 1 2 -3 0 -8 -0 -1 0 1 -1 -4 -4 -2 -2 -1 1 0 1 1 4 -1 -2 -6 -2 -1 -2 -3 -4 -3 -2 -2 -3 -2 -0 -1 -0 -1 -1 -1 -1 0 -1 1
3 11 -13 4 1 -4 -1 6 29 12 9 3 4 4 -0 -0 -1 -1 0 0 -1 -2 -2 0 -1 1 -0 -1 3 -4 3 -6 -5 -2 -1 -1 -1 0 0 -0 -0 -1 -2 -1 -2 -1 -1 -1 1 0 0 -0 -1 -0
18 -17 -5 1 -5 -8 9 40 17 3 3 4 -3 0 3 4 -2 2 1 1 4 -1 -1 -1 3 -6 1 2 1 -1 -5 -3 -1 -0 -2 1 -0 -0 -3 1 -1 -1 -1 -1 -1 -1 -1 -1 0 -0 -0 -1 -0 0
-12 -0 -4 -10 17 16 32 17 5 7 2 1 1 -3 -2 1 -1 1 -0 0 -4 -1 2 -2 -6 3 -2 -1 -1 -3 -2 -1 -1 -2 -1 1 -1 -1 -0 1 -1 -1 -1 -1 -0 0 -1 -1 -0 0 -1 -1 -0 1
-3 -1 -1 11 20 23 -2 8 9 1 -4 0 2 0 0 1 2 3 2 4 2 -0 0 2 3 -1 -3 -2 0 -0 -2 1 -1 -3 -2 1 1 0 0 -0 -1 -2 -2 -1 -1 0 -2 -1 0 0 -1 -2 -1 -0
-2 1 15 15 20 11 2 3 -0 1 1 1 2 1 0 0 0 1 2 2 2 -2 3 1 -3 1 1 -1 0 0 0 -1 0 -0 -2 1 2 2 -0 -0 -1 -0 -0 -0 1 -0 -2 -1 -0 -1 -2 -1 0 0
20 4 12 11 10 10 5 1 2 1 0 -0 -1 -0 -0 -0 1 1 -0 1 1 -1 -0 -0 3 4 2 3 2 2 1 2 1 6 2 -2 0 2 1 1 0 0 -1 -0 -0 -1 2 -0 0 -1 -1 -2 -1 0
2 6 7 12 5 2 1 2 -0 -0 -0 -1 -0 0 0 0 0 1 1 1 -1 2 4 0 -0 -2 -3 -1 -2 0 2 3 3 4 1 1 -1 -1 -1 -1 1 0 -0 -1 -2 -1 1 -0 -2 -2 -1 -1 -0 0
6 8 -1 2 2 2 1 -1 1 -0 1 1 -1 0 1 0 -0 -0 1 -1 2 -1 -1 -3 -2 0 -1 -0 -0 -0 1 1 2 4 3 2 2 0 -1 -0 1 0 -0 -1 -1 -0 -1 0 -0 -1 0 -0 -0 -0
2 -1 0 0 1 1 1 -0 -0 -1 -0 0 0 0 1 1 -0 1 -0 1 -0 -1 -1 -1 -3 -3 -1 0 1 0 0 1 2 2 2 2 1 -1 -0 0 1 0 -1 -1 0 -0 -1 -2 0 0 1 0 -0 1
-4 -1 -0 1 -0 -1 -0 0 -0 -0 0 0 0 -0 2 -1 0 0 -0 1 -1 -0 -2 -2 1 1 -0 0 1 1 0 1 2 3 1 0 1 0 0 0 -1 -1 -0 -0 -1 -1 -2 -1 0 1 0 -1 -0 0
-3 -2 -0 1 0 -0 0 -0 -0 -1 -0 0 1 0 -0 0 1 0 2 -0 -1 -1 -0 -0 -1 -1 1 2 1 1 1 1 1 1 1 1 1 0 -0 -0 -0 -0 -1 -0 -1 -2 -1 1 1 1 -1 -1 0 2
-1 -0 0 1 -0 -0 0 -0 -1 -0 -0 0 1 -0 0 0 0 3 1 -0 -1 1 1 1 0 0 1 1 2 1 0 1 1 1 0 0 1 1 1 -1 -1 -1 -1 -1 -2 -1 0 1 0 -0 -1 -1 -0 0
0 -0 -0 -1 -1 0 0 -0 -0 1 1 -1 1 0 1 3 4 0 -0 0 1 0 1 2 1 1 1 1 1 0 1 1 1 0 -0 -0 1 1 -1 -1 -1 -1 -1 -1 -0 0 0 0 -1 -1 -1 -0 0 0
-1 -2 1 -0 0 -2 0 1 1 0 -0 0 1 0 2 2 2 -0 -0 0 1 1 2 2 2 1 1 2 1 1 1 1 0 1 0 -1 -0 -1 -1 -1 -0 -0 -0 -0 0 0 0 -0 -1 -0 -0 -1 -0 -0
0 -0 -1 -0 -1 1 1 0 1 0 -0 -0 0 -0 3 1 1 2 1 0 -1 -0 1 1 1 1 2 1 1 1 1 1 1 1 -0 -0 -1 -0 -0 1 1 1 -0 -0 1 -1 8 -0 -1 6 -2 -1 -0 -0
-0 -0 -1 -0 0 1 1 1 0 -0 -1 -0 -1 -1 2 1 1 0 -1 -1 -0 0 1 1 1 0 0 0 -0 -0 0 1 1 1 1 -0 -0 1 1 0 -0 0 1 1 0 -0 -1 -1 -1 -1 -1 -1 -0 -1
-1 -1 -0 -0 1 0 0 -1 -0 -0 0 0 0 -0 0 1 0 0 -2 -0 3 0 -0 0 0 1 0 1 1 1 -0 -0 0 0 0 1 1 1 0 -0 0 0 -0 0 0 0 0 -0 -1 -0 -0 0 0 -0
-0 -0 -0 -0 -1 -0 -1 -1 -1 -1 -0 -0 -1 -1 -0 -0 -1 0 -1 -1 -2 -0 -1 0 1 0 -0 -0 -0 1 1 1 -0 -0 0 0 0 -0 1 1 0 -1 -1 -1 -0 -0 -1 -2 -1 1 0 -0 -0 0
Height
1566 1565 1564 1562 1559 1556 1553 1550 1546 1541 1537 1533 1528 1523 1518 1514 1510 1508 1505 1501 1500 1500 1500 1499 1498 1498 1498 1497 1493 1488 1484 1483 1478 1473 1470 1473 1467 1470 1468 1482 1482 1479 1478 1460 1456 1446 1454 1485 1479 1476 1491 1489 1487 1484
1562 1561 1560 1558 1557 1554 1552 1549 1545 1541 1537 1533 1529 1523 1519 1515 1511 1508 1504 1501 1499 1498 1499 1498 1497 1497 1497 1497 1496 1494 1494 1493 1491 1484 1483 1480 1472 1473 1476 1459 1484 1476 1486 1480 1483 1475 1484 1485 1486 1489 1489 1488 1485 1482
1556 1556 1555 1555 1554 1552 1550 1547 1543 1540 1537 1532 1529 1525 1519 1515 1511 1508 1505 1503 1499 1499 1497 1497 1496 1496 1494 1494 1494 1495 1492 1492 1491 1491 1489 1486 1482 1484 1469 1469 1478 1486 1490 1485 1483 1482 1481 1481 1483 1484 1485 1484 1482 1480
1551 1551 1551 1551 1550 1548 1546 1544 1540 1537 1536 1532 1528 1524 1519 1513 1509 1506 1504 1503 1502 1500 1498 1496 1493 1493 1492 1492 1492 1492 1492 1491 1491 1491 1490 1487 1483 1487 1478 1484 1482 1481 1486 1480 1478 1477 1479 1479 1480 1481 1479 1478 1477 1476
1544 1544 1545 1545 1545 1544 1543 1541 1536 1534 1533 1530 1525 1522 1517 1512 1508 1504 1501 1500 1501 1503 1499 1494 1492 1490 1490 1490 1489 1489 1489 1490 1491 1490 1489 1486 1487 1488 1489 1489 1478 1476 1474 1473 1463 1475 1476 1477 1478 1476 1475 1474 1472 1469
1538 1537 1539 1540 1540 1540 1540 1538 1534 1531 1529 1527 1522 1520 1515 1509 1504 1502 1500 1499 1499 1499 1497 1493 1490 1488 1489 1489 1488 1488 1488 1488 1489 1488 1488 1488 1487 1488 1483 1473 1466 1467 1468 1470 1472 1473 1474 1474 1474 1473 1472 1469 1466 1463
1532 1531 1532 1533 1534 1534 1534 1532 1531 1529 1526 1524 1520 1516 1511 1505 1500 1501 1501 1498 1496 1496 1495 1492 1487 1487 1487 1487 1487 1487 1487 1488 1488 1487 1486 1486 1488 1486 1482 1468 1458 1460 1464 1467 1469 1470 1469 1469 1470 1469 1467 1464 1461 1458
1523 1526 1525 1525 1528 1528 1528 1527 1525 1523 1522 1519 1516 1512 1507 1499 1497 1496 1495 1495 1495 1496 1494 1493 1487 1487 1486 1486 1487 1486 1486 1486 1486 1485 1485 1484 1486 1486 1475 1455 1457 1459 1462 1462 1463 1463 1464 1464 1464 1463 1462 1459 1454 1451
1515 1519 1518 1519 1523 1523 1523 1523 1521 1519 1516 1514 1512 1508 1503 1496 1495 1494 1493 1491 1490 1494 1491 1491 1485 1480 1486 1486 1486 1487 1486 1484 1485 1482 1482 1483 1474 1469 1447 1448 1450 1453 1457 1459 1461 1462 1462 1461 1460 1459 1457 1454 1451 1447
1507 1510 1511 1513 1516 1517 1517 1518 1516 1514 1512 1510 1507 1506 1500 1497 1493 1494 1487 1487 1488 1488 1487 1484 1482 1483 1485 1484 1484 1486 1485 1482 1479 1480 1482 1478 1457 1443 1441 1442 1445 1449 1451 1454 1457 1457 1457 1456 1455 1454 1452 1450 1446 1442
1498 1501 1501 1506 1509 1509 1511 1511 1510 1509 1507 1507 1506 1504 1498 1493 1491 1488 1488 1486 1485 1483 1479 1477 1477 1478 1481 1483 1482 1486 1484 1484 1479 1477 1478 1461 1446 1433 1435 1439 1441 1444 1447 1449 1451 1452 1453 1453 1452 1450 1447 1445 1442 1439
1490 1491 1494 1500 1503 1504 1505 1506 1506 1506 1503 1503 1505 1499 1494 1489 1488 1489 1483 1484 1481 1471 1473 1475 1476 1477 1478 1480 1482 1486 1483 1485 1476 1481 1477 1455 1429 1428 1431 1435 1438 1442 1443 1445 1447 1447 1448 1449 1449 1447 1445 1442 1439 1435
1481 1482 1486 1490 1494 1496 1498 1500 1501 1501 1500 1498 1498 1494 1490 1488 1487 1482 1472 1469 1471 1465 1468 1471 1474 1475 1476 1480 1482 1483 1482 1477 1480 1476 1456 1432 1426 1425 1428 1434 1437 1439 1441 1442 1442 1443 1444 1445 1445 1444 1441 1440 1437 1433
1469 1472 1478 1482 1484 1486 1490 1494 1495 1495 1495 1494 1492 1488 1485 1476 1471 1459 1456 1456 1460 1459 1459 1464 1469 1475 1475 1477 1479 1479 1477 1480 1471 1465 1440 1421 1420 1424 1428 1431 1434 1436 1438 1439 1439 1439 1440 1440 1441 1440 1439 1437 1434 1430
1460 1466 1468 1472 1476 1479 1483 1485 1485 1486 1488 1487 1484 1476 1467 1455 1454 1453 1454 1455 1457 1460 1464 1466 1469 1474 1477 1478 1479 1478 1477 1467 1453 1431 1421 1418 1418 1421 1425 1428 1431 1432 1434 1435 1436 1437 1437 1437 1437 1436 1436 1434 1432 1429
1453 1457 1458 1462 1467 1471 1475 1477 1476 1475 1475 1473 1468 1460 1455 1455 1451 1451 1450 1451 1453 1457 1461 1463 1466 1469 1468 1469 1473 1464 1454 1438 1421 1422 1418 1416 1418 1421 1423 1426 1428 1429 1430 1431 1433 1434 1434 1435 1434 1433 1433 1431 1430 1428
1444 1443 1449 1455 1459 1463 1466 1466 1466 1462 1458 1454 1448 1443 1443 1442 1442 1444 1443 1444 1447 1452 1454 1457 1458 1450 1463 1462 1457 1446 1434 1419 1417 1416 1416 1416 1417 1419 1423 1424 1425 1426 1427 1428 1429 1430 1432 1432 1432 1431 1430 1429 1429 1427
1431 1435 1441 1446 1449 1453 1454 1453 1454 1446 1441 1439 1438 1435 1436 1437 1437 1437 1436 1437 1442 1446 1446 1447 1447 1448 1441 1436 1425 1419 1417 1416 1416 1416 1416 1416 1416 1418 1420 1422 1422 1423 1424 1426 1427 1428 1429 1430 1429 1429 1428 1428 1427 1425
1424 1428 1433 1437 1443 1443 1444 1439 1437 1432 1430 1430 1428 1429 1430 1429 1430 1431 1432 1434 1436 1439 1442 1441 1439 1431 1421 1416 1415 1416 1416 1414 1414 1413 1414 1415 1414 1415 1416 1418 1419 1420 1421 1423 1424 1425 1426 1427 1427 1427 1426 1426 1426 1424
1418 1421 1426 1428 1432 1433 1430 1427 1428 1425 1424 1424 1424 1426 1427 1427 1427 1428 1429 1431 1435 1438 1437 1433 1422 1416 1415 1414 1414 1414 1413 1412 1412 1411 1410 1409 1409 1410 1412 1414 1415 1417 1418 1419 1421 1422 1423 1423 1424 1424 1424 1425 1424 1423
1412 1414 1417 1418 1419 1422 1420 1418 1420 1421 1420 1421 1423 1424 1425 1425 1426 1426 1427 1430 1434 1430 1422 1418 1417 1416 1415 1413 1412 1411 1409 1408 1408 1407 1406 1405 1405 1407 1409 1410 1412 1414 1415 1417 1418 1420 1422 1421 1422 1422 1422 1423 1422 1422
1405 1407 1409 1411 1413 1414 1415 1416 1418 1418 1420 1420 1423 1422 1423 1425 1426 1427 1427 1428 1425 1422 1420 1417 1415 1414 1411 1409 1407 1406 1404 1403 1402 1402 1401 1401 1401 1403 1405 1407 1409 1411 1412 1414 1416 1417 1418 1418 1419 1421 1421 1421 1420 1420
1403 1405 1408 1409 1411 1412 1418 1417 1419 1418 1420 1422 1422 1421 1422 1425 1426 1427 1426 1422 1420 1419 1419 1416 1413 1410 1407 1404 1401 1400 1399 1398 1398 1399 1399 1400 1400 1401 1403 1405 1407 1409 1410 1412 1413 1414 1415 1416 1417 1419 1419 1418 1419 1419
1403 1406 1407 1407 1409 1415 1417 1418 1419 1421 1421 1421 1421 1420 1422 1423 1424 1426 1424 1421 1420 1418 1416 1413 1410 1406 1404 1402 1399 1397 1397 1396 1397 1398 1399 1400 1400 1401 1402 1404 1405 1407 1408 1410 1411 1412 1412 1414 1415 1416 1416 1417 1417 1417
1404 1410 1410 1412 1413 1415 1416 1419 1422 1422 1422 1423 1424 1423 1423 1423 1423 1424 1422 1422 1420 1418 1415 1412 1409 1406 1404 1402 1400 1398 1397 1398 1398 1399 1399 1400 1400 1401 1402 1403 1404 1405 1407 1408 1409 1409 1411 1412 1413 1414 1414 1414 1415 1415
1407 1412 1414 1413 1414 1414 1416 1416 1420 1421 1421 1422 1423 1426 1424 1423 1422 1420 1423 1423 1421 1418 1415 1411 1408 1406 1405 1403 1401 1399 1399 1399 1400 1400 1400 1400 1400 1401 1401 1402 1403 1404 1405 1406 1407 1407 1408 1410 1410 1411 1412 1412 1413 1414
1412 1416 1416 1416 1415 1416 1417 1419 1420 1421 1422 1423 1424 1425 1424 1421 1418 1425 1425 1423 1421 1418 1415 1412 1410 1408 1406 1404 1402 1401 1400 1400 1400 1400 1400 1400 1400 1401 1401 1401 1402 1403 1403 1404 1405 1405 1406 1407 1408 1409 1410 1411 1412 1412
1418 1418 1418 1419 1418 1419 1419 1421 1423 1425 1426 1427 1426 1424 1423 1424 1427 1428 1426 1423 1420 1417 1415 1412 1410 1408 1407 1405 1403 1403 1402 1402 1401 1401 1400 1400 1400 1400 1400 1400 1401 1401 1402 1402 1403 1403 1404 1405 1406 1407 1408 1409 1410 1410
1419 1419 1420 1421 1421 1422 1426 1427 1428 1429 1429 1429 1428 1426 1429 1429 1430 1427 1424 1421 1418 1416 1414 1412 1410 1409 1407 1406 1405 1404 1403 1402 1402 1401 1400 1399 1399 1399 1399 1398 1399 1399 1399 1400 1401 1402 1403 1404 1405 1406 1407 1407 1408 1408
1422 1420 1422 1424 1424 1428 1430 1429 1429 1429 1428 1429 1430 1430 1430 1430 1430 1428 1425 1421 1419 1417 1415 1412 1411 1409 1408 1407 1405 1404 1403 1402 1401 1401 1399 1398 1398 1397 1396 1396 1396 1397 1398 1398 1399 1401 1402 1402 1403 1405 1406 1406 1406 1406
1424 1424 1425 1426 1429 1431 1430 1429 1428 1428 1429 1429 1429 1430 1430 1430 1430 1429 1426 1423 1420 1417 1415 1413 1411 1409 1408 1406 1405 1403 1402 1401 1400 1399 1398 1397 1396 1396 1395 1395 1395 1395 1396 1397 1398 1399 1400 1401 1403 1403 1404 1404 1404 1403
1427 1428 1428 1429 1430 1431 1430 1429 1429 1429 1430 1429 1429 1429 1429 1430 1430 1430 1428 1424 1421 1417 1415 1412 1410 1409 1407 1405 1404 1402 1401 1399 1398 1397 1396 1395 1395 1394 1394 1394 1394 1394 1394 1395 1395 1396 1397 1398 1399 1400 1401 1401 1401 1400
1429 1429 1429 1430 1430 1431 1431 1431 1430 1430 1430 1429 1429 1429 1429 1429 1430 1430 1428 1425 1422 1419 1416 1413 1411 1408 1406 1404 1402 1401 1399 1398 1396 1395 1395 1394 1393 1393 1393 1393 1393 1394 1394 1393 1393 1394 1395 1395 1396 1397 1397 1397 1396 1396